Tracking 35334 objects as of 13-Sep-2026
HD Live streaming from Space Station
objects crossing your sky now

NAVSTAR 15 (USA 42)

Track NAVSTAR 15 (USA 42) now!
NAVSTAR 15 (USA 42) is classified as:


NORAD ID: 20185
Int'l Code: 1989-064A
Launch date: August 18, 1989
Source: United States (US)
Launch site: AIR FORCE EASTERN TEST RANGE (AFETR)
Your satellite tracking list
Your tracking list is empty




NASA's NSSDC Master Catalog

Two Line Element Set (TLE):
1 20185U 89064A   26250.93546580  .00000025  00000-0  00000-0 0  9995
2 20185  55.0361  86.5492 0008642 346.8131 191.2167  1.86088523257741
Source of the keplerian elements: AFSPC